GW3576 Weather Reports


time (UTC)temp
C
wind
direction
speed
KPH
gust
KPH
rain 1hr
cm
rain 24hr
cm
rain mn
cm
humidity
%
barometer
mb
20260502190018 18 232 8.0 11.3 0.00 0.00 0.00 38 1008.9
20260502185019 18 255 9.7 14.5 0.00 0.00 0.00 38 1009.2
20260502184019 18 195 4.8 8.0 0.00 0.00 0.00 39 1009.0
20260502183016 18 256 6.4 11.3 0.00 0.00 0.00 39 1009.2
20260502182019 17 287 3.2 6.4 0.00 0.00 0.00 39 1009.5
20260502181039 17 21 4.8 8.0 0.00 0.00 0.00 40 1009.6
20260502164038 18 229 3.2 6.4 0.00 0.00 0.00 40 1010.2
20260502163018 18 250 4.8 8.0 0.00 0.00 0.00 38 1010.3
20260502162018 17 218 6.4 9.7 0.00 0.00 0.00 41 1010.4
20260502151016 12 179 8.0 12.9 0.00 0.00 0.00 56 1011.3
20260502122020 4 187 8.0 12.9 0.00 0.00 0.00 72 1013.1
20260502121019 4 200 6.4 14.5 0.00 0.00 0.00 72 1013.2
20260502115016 3 169 8.0 12.9 0.00 0.00 0.00 74 1013.3
20260502114017 3 170 8.0 11.3 0.00 0.00 0.00 72 1013.5
20260502113020 2 182 9.7 11.3 0.00 0.00 0.00 75 1013.5
20260502111020 3 167 4.8 8.0 0.00 0.00 0.00 74 1013.6
20260502110018 3 177 8.0 11.3 0.00 0.00 0.00 72 1013.6
20260502105018 3 173 8.0 11.3 0.00 0.00 0.00 71 1013.6
20260502104018 3 176 4.8 8.0 0.00 0.00 0.00 71 1013.8
20260502103018 3 159 6.4 9.7 0.00 0.00 0.00 72 1013.9
20260502102018 3 155 8.0 12.9 0.00 0.00 0.00 70 1013.9
20260502101018 3 159 6.4 9.7 0.00 0.00 0.00 69 1014.0
20260502091019 3 156 6.4 12.9 0.00 0.00 0.00 68 1014.9
20260502071018 4 166 4.8 6.4 0.00 0.00 0.00 66 1016.5
20260502070038 4 161 4.8 6.4 0.00 0.00 0.00 67 1016.6
20260502065018 4 165 3.2 4.8 0.00 0.00 0.00 67 1016.8
20260502064018 4 165 4.8 6.4 0.00 0.00 0.00 67 1016.9
20260502063019 4 174 4.8 4.8 0.00 0.00 0.00 66 1017.0
20260502062019 5 178 4.8 6.4 0.00 0.00 0.00 64 1017.1
20260502061019 5 177 4.8 8.0 0.00 0.00 0.00 64 1017.1
20260502060016 5 162 3.2 6.4 0.00 0.00 0.00 62 1017.2
20260502055019 5 177 4.8 6.4 0.00 0.00 0.00 61 1017.1
20260502054020 5 157 3.2 6.4 0.00 0.00 0.00 60 1017.1
20260502053020 5 156 3.2 4.8 0.00 0.00 0.00 59 1017.2
20260502051017 6 167 3.2 4.8 0.00 0.00 0.00 58 1017.3
20260502050017 6 162 4.8 4.8 0.00 0.00 0.00 56 1017.3
20260502045017 6 171 3.2 6.4 0.00 0.00 0.00 57 1017.4
20260502044021 6 170 1.6 3.2 0.00 0.00 0.00 55 1017.4
20260502043038 7 157 4.8 6.4 0.00 0.00 0.00 53 1017.4
20260502041018 7 167 4.8 8.0 0.00 0.00 0.00 48 1017.6
20260502034018 8 170 3.2 4.8 0.00 0.00 0.00 44 1017.7
20260502033019 8 172 3.2 3.2 0.00 0.00 0.00 44 1017.7
20260502031019 8 190 0.0 1.6 0.00 0.00 0.00 48 1017.7
20260502030018 8 166 1.6 3.2 0.00 0.00 0.00 43 1017.9
20260502024017 8 169 1.6 4.8 0.00 0.00 0.00 46 1017.9
20260502022024 9 149 1.6 4.8 0.00 0.00 0.00 45 1017.9
20260502021020 10 145 0.0 1.6 0.00 0.00 0.00 46 1017.9
20260502015017 11 170 1.6 3.2 0.00 0.00 0.00 41 1018.0
20260502011017 13 0.0 0.0 0.00 0.00 0.00 34 1018.3
20260502010017 13 41 1.6 3.2 0.00 0.00 0.00 33 1018.4
20260502005018 13 49 4.8 6.4 0.00 0.00 0.00 33 1018.4
20260502004018 13 30 1.6 3.2 0.00 0.00 0.00 32 1018.5
20260502002019 14 109 1.6 9.7 0.00 0.00 0.00 32 1018.6
20260501232020 13 37 3.2 9.7 0.00 0.00 0.00 35 1018.9
20260501231019 13 270 1.6 4.8 0.00 0.00 0.00 34 1018.9
20260501230020 13 330 4.8 8.0 0.00 0.00 0.00 34 1018.9
20260501225037 13 304 4.8 9.7 0.00 0.00 0.00 35 1019.0
20260501224017 13 62 1.6 4.8 0.00 0.00 0.00 34 1019.0
20260501223018 13 17 3.2 8.0 0.00 0.00 0.00 35 1019.0
20260501222018 12 12 4.8 8.0 0.00 0.00 0.00 35 1019.1
20260501221021 13 310 3.2 4.8 0.00 0.00 0.00 35 1019.0
20260501220018 13 281 4.8 6.4 0.00 0.00 0.00 35 1019.1
20260501215018 12 52 0.0 1.6 0.00 0.00 0.00 36 1019.3
20260501214018 12 21 1.6 3.2 0.00 0.00 0.00 38 1019.3
20260501212018 12 14 4.8 6.4 0.00 0.00 0.00 36 1019.4
20260501205019 12 334 4.8 9.7 0.00 0.00 0.00 37 1019.7
20260501204039 12 173 6.4 9.7 0.00 0.00 0.00 38 1019.8
20260501203039 11 5 3.2 6.4 0.00 0.00 0.00 41 1019.9
20260501202017 11 259 3.2 6.4 0.00 0.00 0.00 39 1020.1
20260501201017 11 270 1.6 6.4 0.00 0.00 0.00 38 1020.2
20260501200017 11 20 11.3 19.3 0.00 0.00 0.00 40 1020.1
20260501193017 10 27 6.4 9.7 0.00 0.00 0.00 41 1020.3
20260501192018 10 267 8.0 11.3 0.00 0.00 0.00 42 1020.3
20260501191017 10 213 6.4 11.3 0.00 0.00 0.00 44 1020.4